Year,Month,Day,Hour,Minute,Value (Times are PST for windgust in km/hr)
2012,02,28,00,00,8.10
2012,02,28,00,01,6.40
2012,02,28,00,02,8.10
2012,02,28,00,03,6.40
2012,02,28,00,04,6.40
2012,02,28,00,05,8.10
2012,02,28,00,06,9.60
2012,02,28,00,07,6.40
2012,02,28,00,08,8.10
2012,02,28,00,09,8.10
2012,02,28,00,10,8.10
2012,02,28,00,11,6.40
2012,02,28,00,12,6.40
2012,02,28,00,13,6.40
2012,02,28,00,14,6.40
2012,02,28,00,15,8.10
2012,02,28,00,16,8.10
2012,02,28,00,17,6.40
2012,02,28,00,18,6.40
2012,02,28,00,19,8.10
2012,02,28,00,20,6.40
2012,02,28,00,21,6.40
2012,02,28,00,22,8.10
2012,02,28,00,23,6.40
2012,02,28,00,24,6.40
2012,02,28,00,25,6.40
2012,02,28,00,26,4.80
2012,02,28,00,27,4.80
2012,02,28,00,28,6.40
2012,02,28,00,29,6.40
2012,02,28,00,30,6.40
2012,02,28,00,31,6.40
2012,02,28,00,32,4.80
2012,02,28,00,33,6.40
2012,02,28,00,34,8.10
2012,02,28,00,35,8.10
2012,02,28,00,36,9.60
2012,02,28,00,37,8.10
2012,02,28,00,38,6.40
2012,02,28,00,39,8.10
2012,02,28,00,40,6.40
2012,02,28,00,41,8.10
2012,02,28,00,42,9.60
2012,02,28,00,43,11.30
2012,02,28,00,44,8.10
2012,02,28,00,45,9.60
2012,02,28,00,46,9.60
2012,02,28,00,47,8.10
2012,02,28,00,48,8.10
2012,02,28,00,49,6.40
2012,02,28,00,50,8.10
2012,02,28,00,51,8.10
2012,02,28,00,52,9.60
2012,02,28,00,53,8.10
2012,02,28,00,54,9.60
2012,02,28,00,55,8.10
2012,02,28,00,56,8.10
2012,02,28,00,57,8.10
2012,02,28,00,58,8.10
2012,02,28,00,59,8.10
2012,02,28,01,00,9.60
2012,02,28,01,01,8.10
2012,02,28,01,02,8.10
2012,02,28,01,03,8.10
2012,02,28,01,04,6.40
2012,02,28,01,05,8.10
2012,02,28,01,06,6.40
2012,02,28,01,07,8.10
2012,02,28,01,08,8.10
2012,02,28,01,09,8.10
2012,02,28,01,10,8.10
2012,02,28,01,11,6.40
2012,02,28,01,12,8.10
2012,02,28,01,13,6.40
2012,02,28,01,14,6.40
2012,02,28,01,15,8.10
2012,02,28,01,16,6.40
2012,02,28,01,17,6.40
2012,02,28,01,18,6.40
2012,02,28,01,19,6.40
2012,02,28,01,20,8.10
2012,02,28,01,21,8.10
2012,02,28,01,22,8.10
2012,02,28,01,23,8.10
2012,02,28,01,24,8.10
2012,02,28,01,25,6.40
2012,02,28,01,26,9.60
2012,02,28,01,27,9.60
2012,02,28,01,28,9.60
2012,02,28,01,29,9.60
2012,02,28,01,30,8.10
2012,02,28,01,31,8.10
2012,02,28,01,32,6.40
2012,02,28,01,33,8.10
2012,02,28,01,34,4.80
2012,02,28,01,35,6.40
2012,02,28,01,36,6.40
2012,02,28,01,37,8.10
2012,02,28,01,38,6.40
2012,02,28,01,39,8.10
2012,02,28,01,40,6.40
2012,02,28,01,41,8.10
2012,02,28,01,42,6.40
2012,02,28,01,43,8.10
2012,02,28,01,44,9.60
2012,02,28,01,45,8.10
2012,02,28,01,46,6.40
2012,02,28,01,47,9.60
2012,02,28,01,48,6.40
2012,02,28,01,49,8.10
2012,02,28,01,50,8.10
2012,02,28,01,51,6.40
2012,02,28,01,52,6.40
2012,02,28,01,53,6.40
2012,02,28,01,54,8.10
2012,02,28,01,55,6.40
2012,02,28,01,56,6.40
2012,02,28,01,57,4.80
2012,02,28,01,58,6.40
2012,02,28,01,59,3.20
2012,02,28,02,00,6.40
2012,02,28,02,01,6.40
2012,02,28,02,02,8.10
2012,02,28,02,03,8.10
2012,02,28,02,04,8.10
2012,02,28,02,05,6.40
2012,02,28,02,06,6.40
2012,02,28,02,07,6.40
2012,02,28,02,08,8.10
2012,02,28,02,09,6.40
2012,02,28,02,10,6.40
2012,02,28,02,11,8.10
2012,02,28,02,12,6.40
2012,02,28,02,13,6.40
2012,02,28,02,14,6.40
2012,02,28,02,15,6.40
2012,02,28,02,16,6.40
2012,02,28,02,17,4.80
2012,02,28,02,18,6.40
2012,02,28,02,19,6.40
2012,02,28,02,20,4.80
2012,02,28,02,21,6.40
2012,02,28,02,22,6.40
2012,02,28,02,23,9.60
2012,02,28,02,24,8.10
2012,02,28,02,25,8.10
2012,02,28,02,26,8.10
2012,02,28,02,27,9.60
2012,02,28,02,28,9.60
2012,02,28,02,29,9.60
2012,02,28,02,30,8.10
2012,02,28,02,31,8.10
2012,02,28,02,32,8.10
2012,02,28,02,33,8.10
2012,02,28,02,34,9.60
2012,02,28,02,35,6.40
2012,02,28,02,36,8.10
2012,02,28,02,37,8.10
2012,02,28,02,38,8.10
2012,02,28,02,39,6.40
2012,02,28,02,40,6.40
2012,02,28,02,41,8.10
2012,02,28,02,42,9.60
2012,02,28,02,43,9.60
2012,02,28,02,44,9.60
2012,02,28,02,45,8.10
2012,02,28,02,46,9.60
2012,02,28,02,47,9.60
2012,02,28,02,48,11.30
2012,02,28,02,49,9.60
2012,02,28,02,50,14.50
2012,02,28,02,51,4.80
2012,02,28,02,52,6.40
2012,02,28,02,53,8.10
2012,02,28,02,54,8.10
2012,02,28,02,55,6.40
2012,02,28,02,56,4.80
2012,02,28,02,57,6.40
2012,02,28,02,58,6.40
2012,02,28,02,59,8.10
2012,02,28,03,00,8.10
2012,02,28,03,01,8.10
2012,02,28,03,02,9.60
2012,02,28,03,03,8.10
2012,02,28,03,04,6.40
2012,02,28,03,05,8.10
2012,02,28,03,06,9.60
2012,02,28,03,07,8.10
2012,02,28,03,08,6.40
2012,02,28,03,09,9.60
2012,02,28,03,10,8.10
2012,02,28,03,11,11.30
2012,02,28,03,12,9.60
2012,02,28,03,13,11.30
2012,02,28,03,14,14.50
2012,02,28,03,15,9.60
2012,02,28,03,16,8.10
2012,02,28,03,17,6.40
2012,02,28,03,18,9.60
2012,02,28,03,19,9.60
2012,02,28,03,20,9.60
2012,02,28,03,21,8.10
2012,02,28,03,22,8.10
2012,02,28,03,23,9.60
2012,02,28,03,24,9.60
2012,02,28,03,25,9.60
2012,02,28,03,26,9.60
2012,02,28,03,27,11.30
2012,02,28,03,28,9.60
2012,02,28,03,29,12.90
2012,02,28,03,30,6.40
2012,02,28,03,31,6.40
2012,02,28,03,32,9.60
2012,02,28,03,33,9.60
2012,02,28,03,34,8.10
2012,02,28,03,35,11.30
2012,02,28,03,36,11.30
2012,02,28,03,37,9.60
2012,02,28,03,38,11.30
2012,02,28,03,39,9.60
2012,02,28,03,40,9.60
2012,02,28,03,41,11.30
2012,02,28,03,42,11.30
2012,02,28,03,43,14.50
2012,02,28,03,44,14.50
2012,02,28,03,45,11.30
2012,02,28,03,46,11.30
2012,02,28,03,47,14.50
2012,02,28,03,48,12.90
2012,02,28,03,49,14.50
2012,02,28,03,50,11.30
2012,02,28,03,51,16.10
2012,02,28,03,52,16.10
2012,02,28,03,53,14.50
2012,02,28,03,54,11.30
2012,02,28,03,55,11.30
2012,02,28,03,56,8.10
2012,02,28,03,57,9.60
2012,02,28,03,58,11.30
2012,02,28,03,59,11.30
2012,02,28,04,00,9.60
2012,02,28,04,01,12.90
2012,02,28,04,02,11.30
2012,02,28,04,03,9.60
2012,02,28,04,04,9.60
2012,02,28,04,05,11.30
2012,02,28,04,06,11.30
2012,02,28,04,07,9.60
2012,02,28,04,08,9.60
2012,02,28,04,09,11.30
2012,02,28,04,10,11.30
2012,02,28,04,11,9.60
2012,02,28,04,12,8.10
2012,02,28,04,13,8.10
2012,02,28,04,14,11.30
2012,02,28,04,15,8.10
2012,02,28,04,16,9.60
2012,02,28,04,17,9.60
2012,02,28,04,18,9.60
2012,02,28,04,19,14.50
2012,02,28,04,20,9.60
2012,02,28,04,21,9.60
2012,02,28,04,22,11.30
2012,02,28,04,23,9.60
2012,02,28,04,24,11.30
2012,02,28,04,25,16.10
2012,02,28,04,26,16.10
2012,02,28,04,27,14.50
2012,02,28,04,28,11.30
2012,02,28,04,29,14.50
2012,02,28,04,30,16.10
2012,02,28,04,31,9.60
2012,02,28,04,32,11.30
2012,02,28,04,33,9.60
2012,02,28,04,34,11.30
2012,02,28,04,35,9.60
2012,02,28,04,36,11.30
2012,02,28,04,37,11.30
2012,02,28,04,38,9.60
2012,02,28,04,39,16.10
2012,02,28,04,40,11.30
2012,02,28,04,41,11.30
2012,02,28,04,42,9.60
2012,02,28,04,43,11.30
2012,02,28,04,44,11.30
2012,02,28,04,45,14.50
2012,02,28,04,46,9.60
2012,02,28,04,47,14.50
2012,02,28,04,48,14.50
2012,02,28,04,49,11.30
2012,02,28,04,50,11.30
2012,02,28,04,51,14.50
2012,02,28,04,52,14.50
2012,02,28,04,53,9.60
2012,02,28,04,54,9.60
2012,02,28,04,55,9.60
2012,02,28,04,56,8.10
2012,02,28,04,57,9.60
2012,02,28,04,58,8.10
2012,02,28,04,59,11.30
2012,02,28,05,00,8.10
2012,02,28,05,01,6.40
2012,02,28,05,02,9.60
2012,02,28,05,03,11.30
2012,02,28,05,04,9.60
2012,02,28,05,05,8.10
2012,02,28,05,06,9.60
2012,02,28,05,07,9.60
2012,02,28,05,08,9.60
2012,02,28,05,09,9.60
2012,02,28,05,10,6.40
2012,02,28,05,11,6.40
2012,02,28,05,12,6.40
2012,02,28,05,13,6.40
2012,02,28,05,14,6.40
2012,02,28,05,15,4.80
2012,02,28,05,16,4.80
2012,02,28,05,17,6.40
2012,02,28,05,18,6.40
2012,02,28,05,19,6.40
2012,02,28,05,20,6.40
2012,02,28,05,21,4.80
2012,02,28,05,22,4.80
2012,02,28,05,23,4.80
2012,02,28,05,24,4.80
2012,02,28,05,25,4.80
2012,02,28,05,26,6.40
2012,02,28,05,27,6.40
2012,02,28,05,28,6.40
2012,02,28,05,29,6.40
2012,02,28,05,30,6.40
2012,02,28,05,31,6.40
2012,02,28,05,32,6.40
2012,02,28,05,33,6.40
2012,02,28,05,34,6.40
2012,02,28,05,35,6.40
2012,02,28,05,36,8.10
2012,02,28,05,37,6.40
2012,02,28,05,38,6.40
2012,02,28,05,39,4.80
2012,02,28,05,40,6.40
2012,02,28,05,41,6.40
2012,02,28,05,42,4.80
2012,02,28,05,43,4.80
2012,02,28,05,44,4.80
2012,02,28,05,45,4.80
2012,02,28,05,46,4.80
2012,02,28,05,47,4.80
2012,02,28,05,48,4.80
2012,02,28,05,49,4.80
2012,02,28,05,50,6.40
2012,02,28,05,51,6.40
2012,02,28,05,52,6.40
2012,02,28,05,53,6.40
2012,02,28,05,54,6.40
2012,02,28,05,55,4.80
2012,02,28,05,56,4.80
2012,02,28,05,57,4.80
2012,02,28,05,58,4.80
2012,02,28,05,59,4.80
2012,02,28,06,00,6.40
2012,02,28,06,01,6.40
2012,02,28,06,02,8.10
2012,02,28,06,03,8.10
2012,02,28,06,04,6.40
2012,02,28,06,05,6.40
2012,02,28,06,06,4.80
2012,02,28,06,07,6.40
2012,02,28,06,08,6.40
2012,02,28,06,09,4.80
2012,02,28,06,10,4.80
2012,02,28,06,11,6.40
2012,02,28,06,12,4.80
2012,02,28,06,13,6.40
2012,02,28,06,14,4.80
2012,02,28,06,15,6.40
2012,02,28,06,16,6.40
2012,02,28,06,17,4.80
2012,02,28,06,18,8.10
2012,02,28,06,19,6.40
2012,02,28,06,20,6.40
2012,02,28,06,21,6.40
2012,02,28,06,22,6.40
2012,02,28,06,23,6.40
2012,02,28,06,24,8.10
2012,02,28,06,25,6.40
2012,02,28,06,26,6.40
2012,02,28,06,27,8.10
2012,02,28,06,28,6.40
2012,02,28,06,29,6.40
2012,02,28,06,30,8.10
2012,02,28,06,31,8.10
2012,02,28,06,32,6.40
2012,02,28,06,33,8.10
2012,02,28,06,34,8.10
2012,02,28,06,35,8.10
2012,02,28,06,36,9.60
2012,02,28,06,37,6.40
2012,02,28,06,38,6.40
2012,02,28,06,39,6.40
2012,02,28,06,40,8.10
2012,02,28,06,41,8.10
2012,02,28,06,42,8.10
2012,02,28,06,43,8.10
2012,02,28,06,44,6.40
2012,02,28,06,45,6.40
2012,02,28,06,46,6.40
2012,02,28,06,47,8.10
2012,02,28,06,48,4.80
2012,02,28,06,49,6.40
2012,02,28,06,50,8.10
2012,02,28,06,51,6.40
2012,02,28,06,52,6.40
2012,02,28,06,53,6.40
2012,02,28,06,54,4.80
2012,02,28,06,55,6.40
2012,02,28,06,56,4.80
2012,02,28,06,57,4.80
2012,02,28,06,58,8.10
2012,02,28,06,59,8.10
2012,02,28,07,00,6.40
2012,02,28,07,01,6.40
2012,02,28,07,02,8.10
2012,02,28,07,03,6.40
2012,02,28,07,04,8.10
2012,02,28,07,05,6.40
2012,02,28,07,06,8.10
2012,02,28,07,07,9.60
2012,02,28,07,08,11.30
2012,02,28,07,09,9.60
2012,02,28,07,10,9.60
2012,02,28,07,11,11.30
2012,02,28,07,12,9.60
2012,02,28,07,13,9.60
2012,02,28,07,14,6.40
2012,02,28,07,15,8.10
2012,02,28,07,16,8.10
2012,02,28,07,17,6.40
2012,02,28,07,18,6.40
2012,02,28,07,19,6.40
2012,02,28,07,20,8.10
2012,02,28,07,21,9.60
2012,02,28,07,22,6.40
2012,02,28,07,23,6.40
2012,02,28,07,24,8.10
2012,02,28,07,25,6.40
2012,02,28,07,26,6.40
2012,02,28,07,27,6.40
2012,02,28,07,28,4.80
2012,02,28,07,29,8.10
2012,02,28,07,30,9.60
2012,02,28,07,31,6.40
2012,02,28,07,32,9.60
2012,02,28,07,33,6.40
2012,02,28,07,34,8.10
2012,02,28,07,35,8.10
2012,02,28,07,36,6.40
2012,02,28,07,37,8.10
2012,02,28,07,38,6.40
2012,02,28,07,39,6.40
2012,02,28,07,40,4.80
2012,02,28,07,41,4.80
2012,02,28,07,42,6.40
2012,02,28,07,43,6.40
2012,02,28,07,44,8.10
2012,02,28,07,45,8.10
2012,02,28,07,46,6.40
2012,02,28,07,47,6.40
2012,02,28,07,48,6.40
2012,02,28,07,49,9.60
2012,02,28,07,50,9.60
2012,02,28,07,51,8.10
2012,02,28,07,52,8.10
2012,02,28,07,53,8.10
2012,02,28,07,54,4.80
2012,02,28,07,55,8.10
2012,02,28,07,56,9.60
2012,02,28,07,57,8.10
2012,02,28,07,58,8.10
2012,02,28,07,59,8.10
2012,02,28,08,00,8.10
2012,02,28,08,01,6.40
2012,02,28,08,02,8.10
2012,02,28,08,03,6.40
2012,02,28,08,04,6.40
2012,02,28,08,05,4.80
2012,02,28,08,06,6.40
2012,02,28,08,07,8.10
2012,02,28,08,08,6.40
2012,02,28,08,09,6.40
2012,02,28,08,10,8.10
2012,02,28,08,11,9.60
2012,02,28,08,12,6.40
2012,02,28,08,13,8.10
2012,02,28,08,14,9.60
2012,02,28,08,15,6.40
2012,02,28,08,16,6.40
2012,02,28,08,17,6.40
2012,02,28,08,18,8.10
2012,02,28,08,19,6.40
2012,02,28,08,20,8.10
2012,02,28,08,21,8.10
2012,02,28,08,22,8.10
2012,02,28,08,23,9.60
2012,02,28,08,24,8.10
2012,02,28,08,25,9.60
2012,02,28,08,26,6.40
2012,02,28,08,27,8.10
2012,02,28,08,28,9.60
2012,02,28,08,29,9.60
2012,02,28,08,30,4.80
2012,02,28,08,31,8.10
2012,02,28,08,32,9.60
2012,02,28,08,33,6.40
2012,02,28,08,34,4.80
2012,02,28,08,35,8.10
2012,02,28,08,36,4.80
2012,02,28,08,38,3.20
2012,02,28,08,39,3.20
2012,02,28,08,40,4.80
2012,02,28,08,41,4.80
2012,02,28,08,42,3.20
2012,02,28,08,43,3.20
2012,02,28,08,44,3.20
2012,02,28,08,45,3.20
2012,02,28,08,46,1.60
2012,02,28,08,47,6.40
2012,02,28,08,48,11.30
2012,02,28,08,49,17.70
2012,02,28,08,50,9.60
2012,02,28,08,51,9.60
2012,02,28,08,52,9.60
2012,02,28,08,53,14.50
2012,02,28,08,54,17.70
2012,02,28,08,55,16.10
2012,02,28,08,56,16.10
2012,02,28,08,57,11.30
2012,02,28,08,58,9.60
2012,02,28,08,59,14.50
2012,02,28,09,00,16.10
2012,02,28,09,01,11.30
2012,02,28,09,02,17.70
2012,02,28,09,03,11.30
2012,02,28,09,04,14.50
2012,02,28,09,05,14.50
2012,02,28,09,06,11.30
2012,02,28,09,07,17.70
2012,02,28,09,08,6.40
2012,02,28,09,09,9.60
2012,02,28,09,10,14.50
2012,02,28,09,11,11.30
2012,02,28,09,12,9.60
2012,02,28,09,13,8.10
2012,02,28,09,14,6.40
2012,02,28,09,15,14.50
2012,02,28,09,16,16.10
2012,02,28,09,17,16.10
2012,02,28,09,18,14.50
2012,02,28,09,19,9.60
2012,02,28,09,20,6.40
2012,02,28,09,21,6.40
2012,02,28,09,22,8.10
2012,02,28,09,23,8.10
2012,02,28,09,24,8.10
2012,02,28,09,25,8.10
2012,02,28,09,26,11.30
2012,02,28,09,27,8.10
2012,02,28,09,28,11.30
2012,02,28,09,29,6.40
2012,02,28,09,30,11.30
2012,02,28,09,31,11.30
2012,02,28,09,32,11.30
2012,02,28,09,33,11.30
2012,02,28,09,34,9.60
2012,02,28,09,35,11.30
2012,02,28,09,36,14.50
2012,02,28,09,37,8.10
2012,02,28,09,38,19.30
2012,02,28,09,39,12.90
2012,02,28,09,40,14.50
2012,02,28,09,41,11.30
2012,02,28,09,42,8.10
2012,02,28,09,43,6.40
2012,02,28,09,44,9.60
2012,02,28,09,45,6.40
2012,02,28,09,46,4.80
2012,02,28,09,47,11.30
2012,02,28,09,48,9.60
2012,02,28,09,49,6.40
2012,02,28,09,50,4.80
2012,02,28,09,51,6.40
2012,02,28,09,52,12.90
2012,02,28,09,53,11.30
2012,02,28,09,54,9.60
2012,02,28,09,55,9.60
2012,02,28,09,56,9.60
2012,02,28,09,57,6.40
2012,02,28,09,58,6.40
2012,02,28,09,59,14.50
2012,02,28,10,00,14.50
2012,02,28,10,01,19.30
2012,02,28,10,02,17.70
2012,02,28,10,03,9.60
2012,02,28,10,04,24.20
2012,02,28,10,05,24.20
2012,02,28,10,06,17.70
2012,02,28,10,07,20.90
2012,02,28,10,08,19.30
2012,02,28,10,09,24.20
2012,02,28,10,10,20.90
2012,02,28,10,11,19.30
2012,02,28,10,12,17.70
2012,02,28,10,13,16.10
2012,02,28,10,14,16.10
2012,02,28,10,15,22.50
2012,02,28,10,16,19.30
2012,02,28,10,17,9.60
2012,02,28,10,18,16.10
2012,02,28,10,19,20.90
2012,02,28,10,20,25.70
2012,02,28,10,21,19.30
2012,02,28,10,22,17.70
2012,02,28,10,23,24.20
2012,02,28,10,24,14.50
2012,02,28,10,25,29.00
2012,02,28,10,26,29.00
2012,02,28,10,27,19.30
2012,02,28,10,28,19.30
2012,02,28,10,29,24.20
2012,02,28,10,30,22.50
2012,02,28,10,31,19.30
2012,02,28,10,32,14.50
2012,02,28,10,33,19.30
2012,02,28,10,34,22.50
2012,02,28,10,35,11.30
2012,02,28,10,36,6.40
2012,02,28,10,37,22.50
2012,02,28,10,38,17.70
2012,02,28,10,39,16.10
2012,02,28,10,40,11.30
2012,02,28,10,41,8.10
2012,02,28,10,42,9.60
2012,02,28,10,43,16.10
2012,02,28,10,44,16.10
2012,02,28,10,45,22.50
2012,02,28,10,46,24.20
2012,02,28,10,47,22.50
2012,02,28,10,48,20.90
2012,02,28,10,49,22.50
2012,02,28,10,50,24.20
2012,02,28,10,51,24.20
2012,02,28,10,52,30.60
2012,02,28,10,53,20.90
2012,02,28,10,54,25.70
2012,02,28,10,55,25.70
2012,02,28,10,56,20.90
2012,02,28,10,57,24.20
2012,02,28,10,58,32.20
2012,02,28,10,59,27.40
2012,02,28,11,00,22.50
2012,02,28,11,01,19.30
2012,02,28,11,02,29.00
2012,02,28,11,03,32.20
2012,02,28,11,04,25.70
2012,02,28,11,05,29.00
2012,02,28,11,06,35.40
2012,02,28,11,07,30.60
2012,02,28,11,08,19.30
2012,02,28,11,09,19.30
2012,02,28,11,10,27.40
2012,02,28,11,11,25.70
2012,02,28,11,12,19.30
2012,02,28,11,13,24.20
2012,02,28,11,14,32.20
2012,02,28,11,15,33.80
2012,02,28,11,16,32.20
2012,02,28,11,17,32.20
2012,02,28,11,18,30.60
2012,02,28,11,19,24.20
2012,02,28,11,20,38.60
2012,02,28,11,21,29.00
2012,02,28,11,22,37.00
2012,02,28,11,23,30.60
2012,02,28,11,24,41.80
2012,02,28,11,25,32.20
2012,02,28,11,26,27.40
2012,02,28,11,27,40.20
2012,02,28,11,28,32.20
2012,02,28,11,29,40.20
2012,02,28,11,30,38.60
2012,02,28,11,31,27.40
2012,02,28,11,32,38.60
2012,02,28,11,33,29.00
2012,02,28,11,34,30.60
2012,02,28,11,35,29.00
2012,02,28,11,36,30.60
2012,02,28,11,37,33.80
2012,02,28,11,38,37.00
2012,02,28,11,39,37.00
2012,02,28,11,40,25.70
2012,02,28,11,41,24.20
2012,02,28,11,42,29.00
2012,02,28,11,43,22.50
2012,02,28,11,44,46.70
2012,02,28,11,45,27.40
2012,02,28,11,46,20.90
2012,02,28,11,47,33.80
2012,02,28,11,48,41.80
2012,02,28,11,49,35.40
2012,02,28,11,50,35.40
2012,02,28,11,51,30.60
2012,02,28,11,52,35.40
2012,02,28,11,53,32.20
2012,02,28,11,54,22.50
2012,02,28,11,55,25.70
2012,02,28,11,56,22.50
2012,02,28,11,57,25.70
2012,02,28,11,58,29.00
2012,02,28,11,59,30.60
2012,02,28,12,00,38.60
2012,02,28,12,01,29.00
2012,02,28,12,02,43.50
2012,02,28,12,03,40.20
2012,02,28,12,04,37.00
2012,02,28,12,05,40.20
2012,02,28,12,06,35.40
2012,02,28,12,07,29.00
2012,02,28,12,08,29.00
2012,02,28,12,09,32.20
2012,02,28,12,10,32.20
2012,02,28,12,11,38.60
2012,02,28,12,12,32.20
2012,02,28,12,13,25.70
2012,02,28,12,14,30.60
2012,02,28,12,15,37.00
2012,02,28,12,16,29.00
2012,02,28,12,17,38.60
2012,02,28,12,18,32.20
2012,02,28,12,19,27.40
2012,02,28,12,20,20.90
2012,02,28,12,21,32.20
2012,02,28,12,22,32.20
2012,02,28,12,23,33.80
2012,02,28,12,24,41.80
2012,02,28,12,25,41.80
2012,02,28,12,26,40.20
2012,02,28,12,27,38.60
2012,02,28,12,28,30.60
2012,02,28,12,29,29.00
2012,02,28,12,30,37.00
2012,02,28,12,31,22.50
2012,02,28,12,32,33.80
2012,02,28,12,33,46.70
2012,02,28,12,34,22.50
2012,02,28,12,35,25.70
2012,02,28,12,36,27.40
2012,02,28,12,37,37.00
2012,02,28,12,38,45.10
2012,02,28,12,39,30.60
2012,02,28,12,40,38.60
2012,02,28,12,41,37.00
2012,02,28,12,42,45.10
2012,02,28,12,43,35.40
2012,02,28,12,44,53.10
2012,02,28,12,45,35.40
2012,02,28,12,46,41.80
2012,02,28,12,47,45.10
2012,02,28,12,48,32.20
2012,02,28,12,49,40.20
2012,02,28,12,50,38.60
2012,02,28,12,51,32.20
2012,02,28,12,52,35.40
2012,02,28,12,53,25.70
2012,02,28,12,54,33.80
2012,02,28,12,55,32.20
2012,02,28,12,56,24.20
2012,02,28,12,57,35.40
2012,02,28,12,58,33.80
2012,02,28,12,59,33.80
2012,02,28,13,00,33.80
2012,02,28,13,01,41.80
2012,02,28,13,02,41.80
2012,02,28,13,03,53.10
2012,02,28,13,04,41.80
2012,02,28,13,05,27.40
2012,02,28,13,06,32.20
2012,02,28,13,07,29.00
2012,02,28,13,08,29.00
2012,02,28,13,09,35.40
2012,02,28,13,10,33.80
2012,02,28,13,11,30.60
2012,02,28,13,12,37.00
2012,02,28,13,13,32.20
2012,02,28,13,14,30.60
2012,02,28,13,15,29.00
2012,02,28,13,16,43.50
2012,02,28,13,17,33.80
2012,02,28,13,18,46.70
2012,02,28,13,19,48.30
2012,02,28,13,20,37.00
2012,02,28,13,21,38.60
2012,02,28,13,22,24.20
2012,02,28,13,23,53.10
2012,02,28,13,24,37.00
2012,02,28,13,25,38.60
2012,02,28,13,26,37.00
2012,02,28,13,27,29.00
2012,02,28,13,28,24.20
2012,02,28,13,29,30.60
2012,02,28,13,30,40.20
2012,02,28,13,31,35.40
2012,02,28,13,32,35.40
2012,02,28,13,33,43.50
2012,02,28,13,34,43.50
2012,02,28,13,35,43.50
2012,02,28,13,36,40.20
2012,02,28,13,37,38.60
2012,02,28,13,38,38.60
2012,02,28,13,39,51.50
2012,02,28,13,40,40.20
2012,02,28,13,41,37.00
2012,02,28,13,42,35.40
2012,02,28,13,43,35.40
2012,02,28,13,44,38.60
2012,02,28,13,45,33.80
2012,02,28,13,46,32.20
2012,02,28,13,47,45.10
2012,02,28,13,48,35.40
2012,02,28,13,49,37.00
2012,02,28,13,50,38.60
2012,02,28,13,51,38.60
2012,02,28,13,52,48.30
2012,02,28,13,53,40.20
2012,02,28,13,54,46.70
2012,02,28,13,55,45.10
2012,02,28,13,56,33.80
2012,02,28,13,57,35.40
2012,02,28,13,58,37.00
2012,02,28,13,59,20.90
2012,02,28,14,00,22.50
2012,02,28,14,01,24.20
2012,02,28,14,02,32.20
2012,02,28,14,03,37.00
2012,02,28,14,04,37.00
2012,02,28,14,05,32.20
2012,02,28,14,06,32.20
2012,02,28,14,07,37.00
2012,02,28,14,08,46.70
2012,02,28,14,09,49.90
2012,02,28,14,10,33.80
2012,02,28,14,11,29.00
2012,02,28,14,12,48.30
2012,02,28,14,13,46.70
2012,02,28,14,14,46.70
2012,02,28,14,15,53.10
2012,02,28,14,16,43.50
2012,02,28,14,17,48.30
2012,02,28,14,18,37.00
2012,02,28,14,19,49.90
2012,02,28,14,20,49.90
2012,02,28,14,21,54.70
2012,02,28,14,22,46.70
2012,02,28,14,23,29.00
2012,02,28,14,24,53.10
2012,02,28,14,25,57.90
2012,02,28,14,26,35.40
2012,02,28,14,27,32.20
2012,02,28,14,28,37.00
2012,02,28,14,29,48.30
2012,02,28,14,30,51.50
2012,02,28,14,31,32.20
2012,02,28,14,32,49.90
2012,02,28,14,33,54.70
2012,02,28,14,34,46.70
2012,02,28,14,35,49.90
2012,02,28,14,36,43.50
2012,02,28,14,37,46.70
2012,02,28,14,38,56.30
2012,02,28,14,39,49.90
2012,02,28,14,40,48.30
2012,02,28,14,41,56.30
2012,02,28,14,42,53.10
2012,02,28,14,43,51.50
2012,02,28,14,44,40.20
2012,02,28,14,45,43.50
2012,02,28,14,46,51.50
2012,02,28,14,47,43.50
2012,02,28,14,48,48.30
2012,02,28,14,49,66.00
2012,02,28,14,50,66.00
2012,02,28,14,51,54.70
2012,02,28,14,52,35.40
2012,02,28,14,53,41.80
2012,02,28,14,54,41.80
2012,02,28,14,55,48.30
2012,02,28,14,56,49.90
2012,02,28,14,57,37.00
2012,02,28,14,58,38.60
2012,02,28,14,59,54.70
2012,02,28,15,00,45.10
2012,02,28,15,01,43.50
2012,02,28,15,02,38.60
2012,02,28,15,03,43.50
2012,02,28,15,04,46.70
2012,02,28,15,05,45.10
2012,02,28,15,06,51.50
2012,02,28,15,07,24.20
2012,02,28,15,08,53.10
2012,02,28,15,09,57.90
2012,02,28,15,10,49.90
2012,02,28,15,11,45.10
2012,02,28,15,12,32.20
2012,02,28,15,13,45.10
2012,02,28,15,14,64.40
2012,02,28,15,15,35.40
2012,02,28,15,16,54.70
2012,02,28,15,17,59.50
2012,02,28,15,18,69.20
2012,02,28,15,19,70.80
2012,02,28,15,20,51.50
2012,02,28,15,21,53.10
2012,02,28,15,22,37.00
2012,02,28,15,23,40.20
2012,02,28,15,24,46.70
2012,02,28,15,25,54.70
2012,02,28,15,26,59.50
2012,02,28,15,27,53.10
2012,02,28,15,28,54.70
2012,02,28,15,29,40.20
2012,02,28,15,30,51.50
2012,02,28,15,31,35.40
2012,02,28,15,32,53.10
2012,02,28,15,33,53.10
2012,02,28,15,34,46.70
2012,02,28,15,35,32.20
2012,02,28,15,36,53.10
2012,02,28,15,37,38.60
2012,02,28,15,38,46.70
2012,02,28,15,39,41.80
2012,02,28,15,40,48.30
2012,02,28,15,41,45.10
2012,02,28,15,42,37.00
2012,02,28,15,43,41.80
2012,02,28,15,44,49.90
2012,02,28,15,45,43.50
2012,02,28,15,46,33.80
2012,02,28,15,47,72.40
2012,02,28,15,48,56.30
2012,02,28,15,49,53.10
2012,02,28,15,50,64.40
2012,02,28,15,51,49.90
2012,02,28,15,52,37.00
2012,02,28,15,53,40.20
2012,02,28,15,54,45.10
2012,02,28,15,55,51.50
2012,02,28,15,56,35.40
2012,02,28,15,57,66.00
2012,02,28,15,58,46.70
2012,02,28,15,59,45.10
2012,02,28,16,00,61.20
2012,02,28,16,01,33.80
2012,02,28,16,02,43.50
2012,02,28,16,03,43.50
2012,02,28,16,04,40.20
2012,02,28,16,05,41.80
2012,02,28,16,06,54.70
2012,02,28,16,07,53.10
2012,02,28,16,08,49.90
2012,02,28,16,09,43.50
2012,02,28,16,10,53.10
2012,02,28,16,11,53.10
2012,02,28,16,12,33.80
2012,02,28,16,13,38.60
2012,02,28,16,14,37.00
2012,02,28,16,15,37.00
2012,02,28,16,16,57.90
2012,02,28,16,17,51.50
2012,02,28,16,18,38.60
2012,02,28,16,19,43.50
2012,02,28,16,20,49.90
2012,02,28,16,21,46.70
2012,02,28,16,22,45.10
2012,02,28,16,23,64.40
2012,02,28,16,24,33.80
2012,02,28,16,25,30.60
2012,02,28,16,26,59.50
2012,02,28,16,27,37.00
2012,02,28,16,28,43.50
2012,02,28,16,29,38.60
2012,02,28,16,30,41.80
2012,02,28,16,31,41.80
2012,02,28,16,32,43.50
2012,02,28,16,33,45.10
2012,02,28,16,34,35.40
2012,02,28,16,35,40.20
2012,02,28,16,36,53.10
2012,02,28,16,37,49.90
2012,02,28,16,38,38.60
2012,02,28,16,39,53.10
2012,02,28,16,40,45.10
2012,02,28,16,41,38.60
2012,02,28,16,42,35.40
2012,02,28,16,43,37.00
2012,02,28,16,44,45.10
2012,02,28,16,45,33.80
2012,02,28,16,46,30.60
2012,02,28,16,47,54.70
2012,02,28,16,48,38.60
2012,02,28,16,49,53.10
2012,02,28,16,50,35.40
2012,02,28,16,51,40.20
2012,02,28,16,52,56.30
2012,02,28,16,53,54.70
2012,02,28,16,54,40.20
2012,02,28,16,55,53.10
2012,02,28,16,56,53.10
2012,02,28,16,57,40.20
2012,02,28,16,58,41.80
2012,02,28,16,59,40.20
2012,02,28,17,00,43.50
2012,02,28,17,01,38.60
2012,02,28,17,02,43.50
2012,02,28,17,03,48.30
2012,02,28,17,04,46.70
2012,02,28,17,05,40.20
2012,02,28,17,06,53.10
2012,02,28,17,07,46.70
2012,02,28,17,08,53.10
2012,02,28,17,09,41.80
2012,02,28,17,10,33.80
2012,02,28,17,11,41.80
2012,02,28,17,12,53.10
2012,02,28,17,13,57.90
2012,02,28,17,14,53.10
2012,02,28,17,15,48.30
2012,02,28,17,16,38.60
2012,02,28,17,17,54.70
2012,02,28,17,18,51.50
2012,02,28,17,19,46.70
2012,02,28,17,20,41.80
2012,02,28,17,21,29.00
2012,02,28,17,22,56.30
2012,02,28,17,23,56.30
2012,02,28,17,24,33.80
2012,02,28,17,25,41.80
2012,02,28,17,26,41.80
2012,02,28,17,27,37.00
2012,02,28,17,28,46.70
2012,02,28,17,29,59.50
2012,02,28,17,30,57.90
2012,02,28,17,31,53.10
2012,02,28,17,32,53.10
2012,02,28,17,33,49.90
2012,02,28,17,34,46.70
2012,02,28,17,35,30.60
2012,02,28,17,36,53.10
2012,02,28,17,37,37.00
2012,02,28,17,38,45.10
2012,02,28,17,39,48.30
2012,02,28,17,40,46.70
2012,02,28,17,41,48.30
2012,02,28,17,42,41.80